Погода в Цусиме

Япония     37°35′44″N   140°39′58″E
темп.,
°C
ветер,
м/с
пор.,
м/с
влажн.,
%
обл.,
%
осадки,
мм/ч
давл.,
гПа
погр.,
м
24 апреля, сб
сб2400:00+3зюз217286 0.0 102512
03:00+3зсз1171100 0.0 102310
06:00+6ююз0064100 0.0 102214
09:00+14ю1141100 0.0 1021578
12:00+19юв0133100 0.0 10191339
15:00+17ю1241100 0.0 1017898
18:00+12ююз227176 0.0 101715
21:00+10юз3116699 0.0 1017291
25 апреля, вс
вс2500:00+9зюз387091 0.0 1016219
03:00+8зюз3476100 0.0 101479
06:00+9зюз31177100 0.0 1014564
09:00+12з4955100 0.0 1013800
12:00+14з4936100 0.0 10121902
15:00+12з4645100 0.0 10121198
18:00+6ссз398532 0.2 1015499
21:00+3сз49670 0.2 1018441
26 апреля, пн
пн2600:00+2зсз412650 0.0 1018589
03:00+1сз4117955 0.0 10191026
06:00+2сз410610 0.0 1020872
09:00+7ссз711417 0.0 10201671
12:00+11ссз69346 0.0 10182054
15:00+11ссз58334 0.0 10172107
18:00+6ссз49521 0.0 1021631
21:00+2зсз11680 0.0 102412
27 апреля, вт
вт2700:00+1з11670 0.0 102511
03:000з11700 0.0 102511
06:00+3зюз12590 0.0 102677
09:00+11юз33360 0.0 1024983
12:00+15зюз45335 0.0 10211630
15:00+16юз463383 0.0 10201734
18:00+11ююз3864100 0.0 1021282
21:00+8юз2582100 0.0 102399
28 апреля, ср
ср2800:00+8зюз3892100 0.0 1023174
03:00+8зюз2283100 0.0 102220
06:00+10зюз1167100 0.0 102225
09:00+17з2441100 0.0 1020902
12:00+19зюз3436100 0.0 10171878
15:00+19юв354395 0.0 10151652
18:00+14ю2272100 0.0 101641
21:00+12зюз2282100 0.0 101524